Change the Weather History Date:

Sunday, February 24, 2013

  Actual Average Record
Temperature  
Mean Temperature 31 °F 36 °F  
Max Temperature 34 °F 52 °F 79 °F (1981)
Min Temperature 28 °F 20 °F -18 °F (1960)
Degree Days  
Heating Degree Days 34 29  
Month to date heating degree days 740 767  
Since 1 July heating degree days 3959 4198  
Cooling Degree Days 0 0  
Month to date cooling degree days 0 0  
Year to date cooling degree days 0 0  
Moisture  
Dew Point 27 °F    
Average Humidity 88    
Maximum Humidity 100    
Minimum Humidity 75    
Precipitation  
Precipitation T in 0.02 in 0.33 in (1952)
Month to date precipitation 0.10 0.32  
Year to date precipitation 0.12 0.62  
Sea Level Pressure  
Sea Level Pressure 29.76 in    
Wind  
Wind Speed 13 mph (NNE)    
Max Wind Speed 24 mph    
Max Gust Speed 31 mph    
Visibility 6 miles    
Events Fog , Snow    
T = Trace of Precipitation, MM = Missing Value Source: NWS Daily Summary

Daily Weather History Graph

Daily Weather History Graph

Search for Another Location

Airport or City:

Trip Planner

Search our weather history database for the weather conditions in past years. The results will help you decide how hot, cold, wet, or windy it might be!

Date:

Astronomy

Feb. 24, 2013 Rise Set
Actual Time 6:28 AM MST 5:39 PM MST
Civil Twilight 6:02 AM MST 6:05 PM MST
Nautical Twilight 5:31 AM MST 6:36 PM MST
Astronomical Twilight 5:01 AM MST 7:07 PM MST
Moon 4:52 PM MST (2/24) 5:27 AM MST (2/24)
Length of Visible Light 12h 03m
Length of Day
11h 10m
Waxing Gibbous, 99% of the Moon is Illuminated
Feb 24
Waxing Gibbous
Feb 25
Full
Mar 4
Last Quarter
Mar 11
New
Mar 19
First Quarter

Hourly Weather History & Observations

Time (MST) Temp. Windchill Dew Point Humidity Pressure Visibility Wind Dir Wind Speed Gust Speed Precip Events Conditions
12:45 AM 30.2 °F 21.3 °F 28.4 °F 93% 29.61 in 2.5 mi ESE 10.4 mph - N/A   Scattered Clouds
12:53 AM 30.0 °F 21.1 °F 28.9 °F 96% 29.61 in 2.5 mi East 10.4 mph - N/A   Mostly Cloudy
1:04 AM 28.4 °F 19.7 °F 28.4 °F 100% 29.60 in 4.0 mi ESE 9.2 mph - N/A   Mostly Cloudy
1:20 AM 28.4 °F 19.1 °F 28.4 °F 100% 29.61 in 2.0 mi ESE 10.4 mph - N/A   Mostly Cloudy
1:39 AM 28.4 °F 20.4 °F 28.4 °F 100% 29.61 in 1.8 mi East 8.1 mph - N/A   Overcast
1:53 AM 28.9 °F 21.1 °F 28.9 °F 100% 29.61 in 1.2 mi ESE 8.1 mph - N/A   Overcast
2:03 AM 28.4 °F 19.1 °F 28.4 °F 100% 29.61 in 1.0 mi ESE 10.4 mph - N/A   Overcast
2:12 AM 28.4 °F 20.4 °F 28.4 °F 100% 29.61 in 0.8 mi ESE 8.1 mph - N/A   Overcast
2:53 AM 28.9 °F 21.9 °F 28.0 °F 96% 29.60 in 0.5 mi North 6.9 mph - N/A Fog Light Freezing Fog
3:05 AM 28.4 °F 22.2 °F 28.4 °F 100% 29.63 in 1.2 mi NNW 5.8 mph - N/A   Overcast
3:14 AM 30.2 °F 23.4 °F 28.4 °F 93% 29.63 in 1.8 mi North 6.9 mph - N/A   Overcast
3:33 AM 30.2 °F 21.9 °F 28.4 °F 93% 29.62 in 1.0 mi North 9.2 mph - N/A   Overcast
3:39 AM 28.4 °F 22.2 °F 28.4 °F 100% 29.62 in 1.5 mi NNE 5.8 mph - N/A   Overcast
3:48 AM 28.4 °F 19.1 °F 28.4 °F 100% 29.61 in 2.5 mi NNE 10.4 mph - N/A   Overcast
3:53 AM 28.9 °F 19.8 °F 28.9 °F 100% 29.61 in 3.0 mi North 10.4 mph - N/A   Overcast
5:31 AM 30.2 °F 21.3 °F 28.4 °F 93% 29.64 in 6.0 mi North 10.4 mph - N/A   Overcast
5:53 AM 30.0 °F 21.7 °F 28.9 °F 96% 29.67 in 7.0 mi North 9.2 mph - N/A   Overcast
6:48 AM 30.2 °F 24.3 °F 28.4 °F 93% 29.68 in 6.0 mi North 5.8 mph - N/A   Overcast
6:53 AM 30.9 °F 23.5 °F 28.0 °F 89% 29.70 in 6.0 mi North 8.1 mph - N/A   Overcast
7:53 AM 30.0 °F 21.1 °F 28.0 °F 92% 29.74 in 5.0 mi NNE 10.4 mph - N/A   Overcast
8:53 AM 30.0 °F 21.7 °F 27.0 °F 88% 29.76 in 6.0 mi NNE 9.2 mph - N/A   Overcast
9:40 AM 30.2 °F 24.3 °F 26.6 °F 86% 29.74 in 8.0 mi North 5.8 mph - N/A   Overcast
9:53 AM 30.9 °F 23.5 °F 27.0 °F 85% 29.78 in 8.0 mi NNE 8.1 mph - N/A   Overcast
10:53 AM 32.0 °F 24.2 °F 27.0 °F 82% 29.79 in 8.0 mi North 9.2 mph - N/A   Overcast
11:53 AM 33.1 °F 23.9 °F 27.0 °F 78% 29.78 in 10.0 mi North 12.7 mph - N/A   Overcast
12:42 PM 33.8 °F 23.5 °F 26.6 °F 75% 29.74 in 9.0 mi North 16.1 mph - N/A   Overcast
12:53 PM 32.0 °F 21.2 °F 27.0 °F 82% 29.78 in 8.0 mi North 16.1 mph - N/A   Overcast
1:53 PM 33.1 °F 22.6 °F 28.0 °F 82% 29.78 in 7.0 mi NNE 16.1 mph 20.7 mph N/A   Overcast
2:49 PM 33.8 °F 22.5 °F 28.4 °F 81% 29.77 in 6.0 mi NNE 19.6 mph - N/A   Haze
2:53 PM 33.1 °F 22.6 °F 28.0 °F 82% 29.81 in 6.0 mi NNE 16.1 mph - N/A   Haze
3:17 PM 33.8 °F 22.5 °F 28.4 °F 81% 29.79 in 7.0 mi North 19.6 mph 25.3 mph N/A   Overcast
3:42 PM 33.8 °F 21.9 °F 26.6 °F 75% 29.81 in 7.0 mi NNE 21.9 mph 26.5 mph N/A   Overcast
3:53 PM 33.1 °F 22.2 °F 27.0 °F 78% 29.86 in 7.0 mi North 17.3 mph 28.8 mph N/A   Overcast
4:25 PM 32.0 °F 20.1 °F 26.6 °F 80% 29.85 in 2.5 mi North 19.6 mph 31.1 mph 0.00 in Snow Light Snow
4:53 PM 30.9 °F 19.1 °F 27.0 °F 85% 29.92 in 4.0 mi NNE 18.4 mph - 0.00 in Snow Light Snow
5:53 PM 30.9 °F 19.8 °F 27.0 °F 85% 29.94 in 4.0 mi North 16.1 mph - 0.00 in Snow Light Snow
6:23 PM 30.2 °F 18.9 °F 26.6 °F 86% 29.91 in 8.0 mi North 16.1 mph - 0.00 in   Overcast
6:51 PM 30.2 °F 18.1 °F 26.6 °F 86% 29.92 in 10.0 mi North 18.4 mph - 0.00 in   Overcast
6:53 PM 30.9 °F 18.7 °F 26.1 °F 82% 29.97 in 10.0 mi North 19.6 mph 24.2 mph 0.00 in   Overcast
7:17 PM 30.2 °F 19.8 °F 26.6 °F 86% 29.95 in 9.0 mi North 13.8 mph 21.9 mph N/A   Overcast
7:53 PM 30.0 °F 16.9 °F 25.0 °F 82% 29.98 in 10.0 mi North 21.9 mph 26.5 mph N/A   Overcast
8:53 PM 28.9 °F 18.6 °F 24.1 °F 82% 30.03 in 10.0 mi NNE 12.7 mph - N/A   Overcast
9:53 PM 28.9 °F 18.2 °F 24.1 °F 82% 30.04 in 8.0 mi NNE 13.8 mph - 0.00 in Snow Light Snow
10:53 PM 28.0 °F 16.1 °F 23.0 °F 81% 30.01 in 9.0 mi North 16.1 mph - 0.00 in   Overcast
11:53 PM 28.9 °F 21.1 °F 24.1 °F 82% 30.05 in 10.0 mi NNE 8.1 mph - N/A   Mostly Cloudy